UAL1173 TJSJ-KEWR

Flight info

Callsign UAL1173
Flight time N/A
Altitude 40000
Route ACONY3 PALDE DCT DONQU DCT LUCTI/M083F400 L454 OKONU/N0474F400 DCT YAALE Y497 SUBBS DCT CYN DCT GXU DCT RBV V249 METRO
Aircraft B772/H-SDE2E3FGHIJ5LORVWXY/LB1D1

Departure

Time 2026-04-30 01:34
Airport Luis Munoz Marin International Airport (TJSJ)

Arrival

Time N/A
Airport Newark Liberty International Airport (KEWR)
Time Latitude Longitude Altitude Speed Heading
2026-04-30 01:11 18.43918 -66.00183 -22 ft 0 kts 204°
2026-04-30 01:20 18.43925 -66.00179 -24 ft 2 kts 204°
2026-04-30 01:21 18.43938 -66.00173 -25 ft 2 kts 204°
2026-04-30 01:21 18.43953 -66.00166 -22 ft 3 kts 211°
2026-04-30 01:21 18.43972 -66.00154 -24 ft 3 kts 211°
2026-04-30 01:21 18.43991 -66.00142 -22 ft 3 kts 211°
2026-04-30 01:22 18.44010 -66.00133 -22 ft 3 kts 189°
2026-04-30 01:22 18.44031 -66.00133 -23 ft 3 kts 157°
2026-04-30 01:22 18.44042 -66.00138 -22 ft 0 kts 158°
2026-04-30 01:24 18.44037 -66.00135 -22 ft 3 kts 156°
2026-04-30 01:24 18.44009 -66.00122 -26 ft 5 kts 156°
2026-04-30 01:24 18.43972 -66.00105 -23 ft 7 kts 157°
2026-04-30 01:25 18.43921 -66.00082 -24 ft 10 kts 158°
2026-04-30 01:25 18.43846 -66.00050 -25 ft 13 kts 157°
2026-04-30 01:25 18.43765 -66.00014 -25 ft 10 kts 157°
2026-04-30 01:25 18.43702 -65.99998 -23 ft 9 kts 177°
2026-04-30 01:26 18.43637 -66.00004 -23 ft 9 kts 186°
2026-04-30 01:26 18.43583 -66.00014 -24 ft 6 kts 205°
2026-04-30 01:26 18.43563 -66.00056 -26 ft 7 kts 261°
2026-04-30 01:26 18.43561 -66.00117 -26 ft 11 kts 269°
2026-04-30 01:27 18.43562 -66.00187 -22 ft 6 kts 271°
2026-04-30 01:27 18.43540 -66.00224 -27 ft 6 kts 203°
2026-04-30 01:27 18.43495 -66.00229 -28 ft 7 kts 188°
2026-04-30 01:27 18.43468 -66.00274 -39 ft 8 kts 267°
2026-04-30 01:28 18.43467 -66.00353 -26 ft 13 kts 270°
2026-04-30 01:28 18.43467 -66.00449 -24 ft 13 kts 270°
2026-04-30 01:28 18.43467 -66.00544 -24 ft 13 kts 269°
2026-04-30 01:28 18.43466 -66.00639 -24 ft 13 kts 268°
2026-04-30 01:29 18.43468 -66.00735 -24 ft 13 kts 271°
2026-04-30 01:29 18.43468 -66.00830 -23 ft 13 kts 269°
2026-04-30 01:29 18.43467 -66.00936 -24 ft 17 kts 270°
2026-04-30 01:29 18.43468 -66.01057 -25 ft 16 kts 270°
2026-04-30 01:30 18.43467 -66.01174 -27 ft 13 kts 269°
2026-04-30 01:30 18.43466 -66.01266 -26 ft 13 kts 270°
2026-04-30 01:30 18.43467 -66.01358 -26 ft 13 kts 270°
2026-04-30 01:30 18.43484 -66.01426 -30 ft 9 kts 323°
2026-04-30 01:31 18.43542 -66.01435 -27 ft 9 kts 357°
2026-04-30 01:31 18.43602 -66.01436 -25 ft 9 kts
2026-04-30 01:31 18.43661 -66.01434 -27 ft 9 kts
2026-04-30 01:31 18.43725 -66.01435 -49 ft 9 kts 356°
2026-04-30 01:32 18.43760 -66.01454 -54 ft 6 kts 292°
2026-04-30 01:32 18.43756 -66.01495 -45 ft 6 kts 266°
2026-04-30 01:32 18.43773 -66.01533 -55 ft 7 kts 310°
2026-04-30 01:32 18.43822 -66.01563 -39 ft 7 kts 356°
2026-04-30 01:33 18.43853 -66.01539 -43 ft 5 kts 59°
2026-04-30 01:33 18.43870 -66.01500 -50 ft 23 kts 65°
2026-04-30 01:33 18.44040 -66.01082 -48 ft 101 kts 67°
2026-04-30 01:33 18.44409 -66.00168 -23 ft 166 kts 67°
2026-04-30 01:34 18.44878 -65.99043 667 ft 168 kts 65°
2026-04-30 01:34 18.45643 -65.98100 1269 ft 181 kts 29°
2026-04-30 01:34 18.46942 -65.97890 1604 ft 206 kts 349°
2026-04-30 01:34 18.48375 -65.98417 1827 ft 232 kts 338°
2026-04-30 01:35 18.49927 -65.99130 2131 ft 255 kts 337°
2026-04-30 01:35 18.51525 -66.00003 2621 ft 264 kts 323°
2026-04-30 01:35 18.52887 -66.01349 3219 ft 274 kts 314°
2026-04-30 01:35 18.54151 -66.02838 4078 ft 273 kts 312°
2026-04-30 01:36 18.55416 -66.04365 4800 ft 277 kts 311°
2026-04-30 01:36 18.56689 -66.05899 5616 ft 276 kts 311°
2026-04-30 01:36 18.57966 -66.07422 6367 ft 278 kts 312°
2026-04-30 01:36 18.59264 -66.08956 7003 ft 283 kts 312°
2026-04-30 01:37 18.60583 -66.10504 7663 ft 284 kts 312°
2026-04-30 01:37 18.61914 -66.12054 8351 ft 285 kts 312°
2026-04-30 01:37 18.63248 -66.13602 9032 ft 286 kts 312°
2026-04-30 01:37 18.64593 -66.15162 9658 ft 288 kts 312°
2026-04-30 01:38 18.65939 -66.16721 9995 ft 288 kts 311°
2026-04-30 01:38 18.67305 -66.18301 9986 ft 294 kts 311°
2026-04-30 01:38 18.68692 -66.19905 10196 ft 301 kts 312°
2026-04-30 01:38 18.70129 -66.21567 10312 ft 320 kts 311°
2026-04-30 01:39 18.71692 -66.23376 10467 ft 339 kts 312°
2026-04-30 01:39 18.73293 -66.25225 10796 ft 352 kts 311°
2026-04-30 01:39 18.74957 -66.27148 11368 ft 358 kts 311°
2026-04-30 01:39 18.76650 -66.29106 11965 ft 363 kts 311°
2026-04-30 01:40 18.78365 -66.31091 12648 ft 367 kts 311°
2026-04-30 01:40 18.80094 -66.33092 13381 ft 371 kts 311°
2026-04-30 01:40 18.81847 -66.35121 14048 ft 375 kts 311°
2026-04-30 01:40 18.83626 -66.37181 14493 ft 386 kts 311°
2026-04-30 01:41 18.85460 -66.39307 14855 ft 397 kts 311°
2026-04-30 01:41 18.87333 -66.41478 15321 ft 402 kts 311°
2026-04-30 01:41 18.89225 -66.43670 15869 ft 405 kts 311°
2026-04-30 01:41 18.91125 -66.45873 16500 ft 405 kts 310°
2026-04-30 01:42 18.93044 -66.48069 17064 ft 407 kts 312°
2026-04-30 01:42 18.95074 -66.50166 17572 ft 411 kts 314°
2026-04-30 01:42 18.97153 -66.52254 18029 ft 414 kts 314°
2026-04-30 01:42 18.99250 -66.54354 18467 ft 416 kts 314°
2026-04-30 01:43 19.01355 -66.56470 18893 ft 419 kts 314°
2026-04-30 01:43 19.03468 -66.58605 19254 ft 422 kts 313°
2026-04-30 01:43 19.05593 -66.60759 19616 ft 425 kts 313°
2026-04-30 01:43 19.07712 -66.62902 19972 ft 428 kts 314°
2026-04-30 01:44 19.09942 -66.65000 20341 ft 431 kts 316°
2026-04-30 01:44 19.12226 -66.67070 20691 ft 434 kts 316°
2026-04-30 01:44 19.14542 -66.69146 21040 ft 437 kts 316°
2026-04-30 01:44 19.16866 -66.71226 21398 ft 439 kts 316°
2026-04-30 01:45 19.19205 -66.73324 21767 ft 442 kts 316°
2026-04-30 01:45 19.21536 -66.75421 22126 ft 444 kts 315°
2026-04-30 01:45 19.23837 -66.77497 22465 ft 447 kts 315°